N8QYG-1 Weather Reports


time (UTC)temp
C
wind
direction
speed
KPH
gust
KPH
rain 1hr
cm
rain 24hr
cm
rain mn
cm
humidity
%
barometer
mb
20260508231019 17 237 3.2 3.2 0.00 0.00 0.00 4 1003.1
20260508230018 17 234 1.6 3.2 0.00 0.00 0.00 4 1003.1
20260508225019 17 252 8.0 9.7 0.00 0.00 0.00 4 1003.2
20260508224020 17 207 4.8 6.4 0.00 0.00 0.00 4 1003.1
20260508223019 16 163 4.8 4.8 0.00 0.00 0.00 4 1003.1
20260508222019 16 232 4.8 6.4 0.00 0.00 0.00 4 1003.2
20260508221018 17 174 3.2 6.4 0.00 0.00 0.00 5 1003.3
20260508220017 17 188 4.8 8.0 0.00 0.00 0.00 5 1003.3
20260508215019 17 166 6.4 8.0 0.00 0.00 0.00 5 1003.5
20260508214018 16 163 6.4 6.4 0.00 0.00 0.00 5 1003.5
20260508213019 17 192 8.0 9.7 0.00 0.00 0.00 4 1003.5
20260508212019 17 219 1.6 3.2 0.00 0.00 0.00 4 1003.6
20260508211018 17 248 4.8 6.4 0.00 0.00 0.00 4 1003.7
20260508210019 17 199 4.8 6.4 0.00 0.00 0.00 4 1003.7
20260508205019 18 217 6.4 11.3 0.00 0.00 0.00 4 1003.8
20260508204018 17 244 3.2 4.8 0.00 0.00 0.00 4 1004.0
20260508203018 17 273 6.4 11.3 0.00 0.00 0.00 4 1004.0
20260508202019 17 176 3.2 3.2 0.00 0.00 0.00 4 1004.3
20260508201019 17 189 3.2 4.8 0.00 0.00 0.00 4 1004.6
20260508200019 17 186 6.4 8.0 0.00 0.00 0.00 4 1004.6
20260508195018 16 163 4.8 4.8 0.00 0.00 0.00 4 1004.8
20260508194018 17 210 3.2 4.8 0.00 0.00 0.00 4 1005.0
20260508193019 17 240 4.8 9.7 0.00 0.00 0.00 3 1005.0
20260508192020 17 210 3.2 4.8 0.00 0.00 0.00 3 1005.3
20260508191020 17 242 12.9 12.9 0.00 0.00 0.00 3 1005.5
20260508190018 17 209 4.8 6.4 0.00 0.00 0.00 3 1005.5
20260508185019 16 272 4.8 4.8 0.00 0.00 0.00 4 1005.8
20260508184018 17 261 6.4 8.0 0.00 0.00 0.00 4 1005.9
20260508183021 17 285 3.2 4.8 0.00 0.00 0.00 4 1005.9
20260508182018 16 190 8.0 8.0 0.00 0.00 0.00 4 1005.9
20260508181019 16 196 8.0 8.0 0.00 0.00 0.00 4 1006.1
20260508180020 17 232 8.0 12.9 0.00 0.00 0.00 3 1006.1
20260508175018 16 207 1.6 1.6 0.00 0.00 0.00 3 1006.5
20260508174021 17 206 6.4 9.7 0.00 0.00 0.00 4 1006.8
20260508173020 16 277 4.8 9.7 0.00 0.00 0.00 3 1006.8
20260508172018 16 0 0.0 1.6 0.00 0.00 0.00 4 1007.0
20260508171021 15 215 6.4 6.4 0.00 0.00 0.00 4 1007.3
20260508170019 15 0 0.0 1.6 0.00 0.00 0.00 4 1007.3
20260508165019 15 208 4.8 8.0 0.00 0.00 0.00 4 1007.5
20260508164020 15 228 1.6 4.8 0.00 0.00 0.00 4 1007.8
20260508163021 15 0 0.0 0.0 0.00 0.00 0.00 5 1007.8
20260508162018 15 251 8.0 8.0 0.00 0.00 0.00 4 1008.0
20260508161020 13 157 1.6 1.6 0.00 0.00 0.00 4 1008.0
20260508160019 13 159 1.6 1.6 0.00 0.00 0.00 4 1008.0
20260508155020 13 117 4.8 4.8 0.00 0.00 0.00 5 1008.0
20260508154018 13 100 4.8 8.0 0.00 0.00 0.00 4 1008.1
20260508153018 13 200 4.8 4.8 0.00 0.00 0.00 5 1008.1
20260508152020 13 0 0.0 1.6 0.00 0.00 0.00 5 1008.4
20260508151020 13 65 1.6 1.6 0.00 0.00 0.00 5 1008.5
20260508150020 12 69 4.8 4.8 0.00 0.00 0.00 5 1008.5
20260508145019 12 43 3.2 3.2 0.00 0.00 0.00 5 1008.6
20260508144017 12 63 1.6 1.6 0.00 0.00 0.00 5 1008.6
20260508143020 12 28 4.8 4.8 0.00 0.00 0.00 5 1008.6
20260508142018 12 0 0.0 3.2 0.00 0.00 0.00 6 1008.7
20260508141020 11 21 3.2 3.2 0.00 0.00 0.00 6 1008.8
20260508140018 11 295 1.6 1.6 0.00 0.00 0.00 6 1008.8
20260508135019 10 270 1.6 1.6 0.00 0.00 0.00 6 1009.0
20260508134020 9 257 4.8 4.8 0.00 0.00 0.00 7 1008.9
20260508133019 9 238 1.6 1.6 0.00 0.00 0.00 7 1008.9
20260508132018 8 0 0.0 1.6 0.00 0.00 0.00 7 1009.0
20260508131019 8 229 3.2 3.2 0.00 0.00 0.00 7 1009.0
20260508130018 8 0 0.0 1.6 0.00 0.00 0.00 7 1009.0
20260508125018 8 229 1.6 1.6 0.00 0.00 0.00 8 1008.9
20260508124018 7 0 0.0 0.0 0.00 0.00 0.00 8 1008.7
20260508123019 7 0 0.0 0.0 0.00 0.00 0.00 8 1008.7
20260508122019 7 223 3.2 3.2 0.00 0.00 0.00 8 1008.8
20260508121019 7 221 1.6 1.6 0.00 0.00 0.00 8 1008.7
20260508120020 6 0 0.0 0.0 0.00 0.00 0.00 8 1008.7
20260508115019 6 0 0.0 0.0 0.00 0.00 0.00 8 1008.5
20260508114017 5 0 0.0 0.0 0.00 0.00 0.00 8 1008.3
20260508113019 5 0 0.0 0.0 0.00 0.00 0.00 8 1008.3
20260508112020 4 0 0.0 0.0 0.00 0.00 0.00 8 1008.1
20260508111018 4 0 0.0 0.0 0.00 0.00 0.00 8 1008.1
20260508110019 3 0 0.0 0.0 0.00 0.00 0.00 8 1008.1
20260508105018 4 0 0.0 0.0 0.00 0.00 0.00 8 1008.1
20260508104017 4 0 0.0 0.0 0.00 0.00 0.00 8 1008.0
20260508103019 4 0 0.0 0.0 0.00 0.00 0.00 8 1008.0
20260508102021 4 0 0.0 0.0 0.00 0.00 0.00 8 1007.9
20260508101019 4 0 0.0 1.6 0.00 0.00 0.00 8 1007.7
20260508100020 5 0 0.0 0.0 0.00 0.00 0.00 8 1007.7
20260508095019 5 0 0.0 0.0 0.00 0.00 0.00 8 1007.9
20260508094018 5 0 0.0 0.0 0.00 0.00 0.00 8 1007.9
20260508093018 5 0 0.0 0.0 0.00 0.00 0.00 8 1007.9
20260508092018 6 0 0.0 0.0 0.00 0.00 0.00 8 1008.0
20260508091018 6 0 0.0 0.0 0.00 0.00 0.00 8 1007.8
20260508090017 6 0 0.0 0.0 0.00 0.00 0.00 8 1007.8
20260508085019 6 0 0.0 0.0 0.00 0.00 0.00 8 1007.8
20260508084019 6 221 1.6 1.6 0.00 0.00 0.00 8 1007.9
20260508083019 6 0 0.0 0.0 0.00 0.00 0.00 8 1007.9
20260508082017 6 221 3.2 3.2 0.00 0.00 0.00 7 1008.1
20260508081019 6 221 3.2 3.2 0.00 0.00 0.00 7 1008.0
20260508080019 6 221 4.8 4.8 0.00 0.00 0.00 7 1008.0
20260508075019 7 0 0.0 0.0 0.00 0.00 0.00 7 1008.2
20260508073018 6 221 4.8 4.8 0.00 0.00 0.00 7 1008.1
20260508072018 6 221 1.6 3.2 0.00 0.00 0.00 7 1008.1
20260508071019 6 0 0.0 3.2 0.00 0.00 0.00 7 1008.1
20260508070018 6 0 0.0 0.0 0.00 0.00 0.00 7 1008.1
20260508065018 6 0 0.0 0.0 0.00 0.00 0.00 7 1008.1
20260508064018 6 0 0.0 0.0 0.00 0.00 0.00 7 1008.2
20260508063018 5 0 0.0 0.0 0.00 0.00 0.00 7 1008.2
20260508062018 6 0 0.0 0.0 0.00 0.00 0.00 7 1008.2
20260508061018 6 0 0.0 0.0 0.00 0.00 0.00 7 1008.2
20260508060018 6 0 0.0 0.0 0.00 0.00 0.00 7 1008.2
20260508054018 6 0 0.0 0.0 0.00 0.00 0.00 7 1008.5
20260508053019 7 0 0.0 0.0 0.00 0.00 0.00 7 1008.5
20260508052018 7 0 0.0 0.0 0.00 0.00 0.00 7 1008.5
20260508051018 8 0 0.0 0.0 0.00 0.00 0.00 6 1008.6
20260508050018 8 221 3.2 3.2 0.00 0.00 0.00 6 1008.6
20260508045019 8 0 0.0 0.0 0.00 0.00 0.00 6 1008.5
20260508044018 8 221 1.6 3.2 0.00 0.00 0.00 6 1008.4
20260508043019 8 221 1.6 1.6 0.00 0.00 0.00 6 1008.4
20260508042018 9 221 3.2 4.8 0.00 0.00 0.00 6 1008.2
20260508041018 9 221 4.8 4.8 0.00 0.00 0.00 6 1008.2
20260508040017 9 221 1.6 3.2 0.00 0.00 0.00 6 1008.2
20260508035018 10 211 1.6 1.6 0.00 0.00 0.00 6 1008.2
20260508034018 10 240 1.6 1.6 0.00 0.00 0.00 6 1008.4
20260508033018 10 240 1.6 1.6 0.00 0.00 0.00 5 1008.4
20260508032019 10 239 3.2 3.2 0.00 0.00 0.00 5 1008.6
20260508031018 10 0 0.0 0.0 0.00 0.00 0.00 5 1008.8
20260508030018 10 236 3.2 3.2 0.00 0.00 0.00 5 1008.8
20260508025020 10 251 6.4 6.4 0.00 0.00 0.00 5 1008.8
20260508024018 10 252 4.8 4.8 0.00 0.00 0.00 5 1008.6
20260508023019 10 259 3.2 3.2 0.00 0.00 0.00 5 1008.6
20260508022018 10 211 4.8 4.8 0.00 0.00 0.00 5 1008.7
20260508021018 11 244 1.6 3.2 0.00 0.00 0.00 5 1008.6
20260508020018 11 243 4.8 8.0 0.00 0.00 0.00 4 1008.6
20260508015019 11 252 11.3 11.3 0.00 0.00 0.00 4 1008.6
20260508014019 11 265 6.4 8.0 0.00 0.00 0.00 4 1008.5
20260508013018 11 280 8.0 12.9 0.00 0.00 0.00 4 1008.5
20260508012018 11 269 4.8 6.4 0.00 0.00 0.00 4 1008.1
20260508011020 11 0 0.0 0.0 0.00 0.00 0.00 4 1007.9
20260508010018 11 317 1.6 3.2 0.00 0.00 0.00 4 1007.9
20260508005019 11 306 1.6 3.2 0.00 0.00 0.00 4 1007.9
20260508004018 11 300 4.8 4.8 0.00 0.00 0.00 4 1007.9
20260508003018 11 287 4.8 4.8 0.00 0.00 0.00 4 1007.9
20260508002017 11 304 9.7 11.3 0.00 0.00 0.00 4 1007.8
20260508001018 11 0 0.0 1.6 0.00 0.00 0.00 4 1007.9
20260508000018 11 259 3.2 6.4 0.00 0.00 0.00 4 1007.9
20260507235019 11 246 6.4 6.4 0.00 0.00 0.00 4 1007.7
20260507234019 12 253 4.8 6.4 0.00 0.00 0.00 4 1007.9
20260507233020 12 263 9.7 11.3 0.00 0.00 0.00 4 1007.9
20260507232018 12 257 6.4 8.0 0.00 0.00 0.00 4 1007.9